DateTime,DeltaTime,Roll,TargetAngle,Position,Power
2022-05-24 14:20:41.963,0,-1.08,-13.06,2,81.39
2022-05-24 14:20:42.078,0.114996358752251,-3.7,-22,2,90
2022-05-24 14:20:42.192,0.228996947407722,-4.4,-16.75,2,67.94
2022-05-24 14:20:42.307,0.344003364443779,-2.33,2.63,2,-27.9
2022-05-24 14:20:42.420,0.456998124718666,1.43,23.24,2,-90
2022-05-24 14:20:42.536,0.573000311851501,5.7,28,2,-90
2022-05-24 14:20:42.651,0.687996670603752,7.68,28,2,-90
2022-05-24 14:20:42.765,0.801997259259224,4.8,5.95,2,13.17
2022-05-24 14:20:42.880,0.91700367629528,-0.97,-22,2,90
2022-05-24 14:20:42.991,1.0279968380928,-6.38,-22,2,90
2022-05-24 14:20:43.105,1.14199742674828,-8.9,-22,2,90
2022-05-24 14:20:43.220,1.25699378550053,-6.66,-11.75,1,41.46
2022-05-24 14:20:43.334,1.370994374156,0.05,28,2,-90
2022-05-24 14:20:43.449,1.48600079119205,8.4,28,2,-90
2022-05-24 14:20:43.564,1.60099714994431,13.64,28,1,-90
2022-05-24 14:20:43.678,1.71499773859978,12.5,28,2,-90
2022-05-24 14:20:43.793,1.82999409735203,6,-5.69,2,76.16
2022-05-24 14:20:43.908,1.94500051438808,-3,-22,2,90
2022-05-24 14:20:44.023,2.05999687314034,-9.54,-22,2,90
2022-05-24 14:20:44.136,2.17300169169903,-11.48,-22,2,90
2022-05-24 14:20:44.251,2.28799805045128,-8.24,-12.89,2,47.5
2022-05-24 14:20:44.368,2.40499600768089,-0.2,28,2,-90
2022-05-24 14:20:44.481,2.51800082623959,9.2,28,2,-90
2022-05-24 14:20:44.596,2.63299718499184,15.15,28,2,-90
2022-05-24 14:20:44.711,2.74800360202789,14.76,28,1,-90
2022-05-24 14:20:44.821,2.85800099372864,8.72,5.9,2,8.1
2022-05-24 14:20:44.936,2.97299735248089,-0.26,-22,2,90
2022-05-24 14:20:45.051,3.08799371123314,-8.51,-22,3,90
2022-05-24 14:20:45.165,3.20199429988861,-12.3,-22,2,90
2022-05-24 14:20:45.280,3.31700071692467,-10.26,-22,2,90
2022-05-24 14:20:45.395,3.43199707567692,-3.63,17.99,2,-90
2022-05-24 14:20:45.509,3.54599766433239,4.89,28,2,-90
2022-05-24 14:20:45.624,3.66099402308464,11.24,28,3,-90
2022-05-24 14:20:45.739,3.7760004401207,12.36,28,2,-90
2022-05-24 14:20:45.853,3.89000102877617,8.16,11.92,2,-19.83
2022-05-24 14:20:45.968,4.00499738752842,0.82,-22,2,90
2022-05-24 14:20:46.083,4.11999374628067,-6.41,-22,2,90
2022-05-24 14:20:46.198,4.23500016331673,-10.09,-22,2,90
2022-05-24 14:20:46.312,4.3490007519722,-8.84,-22,2,90
2022-05-24 14:20:46.427,4.46399711072445,-3.5,12.82,2,-88.87
2022-05-24 14:20:46.542,4.57900352776051,3.37,28,2,-90
2022-05-24 14:20:46.651,4.68799509108067,8.31,28,1,-90
2022-05-24 14:20:46.767,4.8039972782135,8.72,28,2,-90
2022-05-24 14:20:46.882,4.91899363696575,4.95,2.56,2,32.43
2022-05-24 14:20:46.996,5.03299422562122,-0.49,-22,2,90
2022-05-24 14:20:47.111,5.14800064265728,-5.04,-22,2,90
2022-05-24 14:20:47.225,5.26200123131275,-6.54,-22,2,90
2022-05-24 14:20:47.340,5.376997590065,-4.5,-5.06,2,5.97
2022-05-24 14:20:47.456,5.49299977719784,-0.14,20.32,3,-90
2022-05-24 14:20:47.569,5.60599453747272,4.13,28,2,-90
2022-05-24 14:20:47.684,5.72100095450878,5.71,28,2,-90
2022-05-24 14:20:47.799,5.83599731326103,4,8.27,2,0.83
2022-05-24 14:20:47.913,5.9499979019165,0.83,-9.21,2,67.12
2022-05-24 14:20:48.028,6.06499426066875,-2.09,-18.32,2,90
2022-05-24 14:20:48.143,6.18000067770481,-3.33,-15.36,2,65.38
2022-05-24 14:20:48.253,6.28999806940556,-2.16,-0.67,2,-8.6
2022-05-24 14:20:48.369,6.40600025653839,0.59,15.85,2,-76.71
2022-05-24 14:20:48.483,6.52000084519386,3.33,25.41,2,-90
2022-05-24 14:20:48.598,6.63499720394611,4.03,18.89,2,-58.88
2022-05-24 14:20:48.712,6.74899779260159,2.3,2.26,2,20.76
2022-05-24 14:20:48.827,6.86399415135384,-0.34,-11,2,69.27
2022-05-24 14:20:48.942,6.97900056838989,-2.49,-16.35,2,80.27
2022-05-24 14:20:49.056,7.09300115704536,-2.81,-9.51,2,36.99
2022-05-24 14:20:49.171,7.20799751579762,-0.99,6.25,2,-36.58
2022-05-24 14:20:49.286,7.32299387454987,2,21.86,2,-90
2022-05-24 14:20:49.401,7.43800029158592,4.49,28,2,-90
2022-05-24 14:20:49.515,7.55200088024139,4.51,17.65,2,-48.9
2022-05-24 14:20:49.630,7.66699723899364,2.05,-1.81,2,40.72
2022-05-24 14:20:49.744,7.78099782764912,-1.2,-16.68,2,90
2022-05-24 14:20:49.859,7.89599418640137,-3.65,-21.75,2,90
2022-05-24 14:20:49.974,8.01100060343742,-3.88,-12.85,2,47.63
2022-05-24 14:20:50.084,8.12099799513817,-1.49,6.99,1,-45.91
2022-05-24 14:20:50.198,8.23499858379364,2.29,26.33,2,-90
2022-05-24 14:20:50.313,8.34999494254589,5.58,28,2,-90
2022-05-24 14:20:50.428,8.46500135958195,6.04,24.92,2,-87.43
2022-05-24 14:20:50.543,8.5799977183342,3.48,2.77,2,25.96
2022-05-24 14:20:50.658,8.69499407708645,-0.49,-17.38,2,90
2022-05-24 14:20:50.773,8.81000049412251,-4.08,-22,2,90
2022-05-24 14:20:50.886,8.92299525439739,-5.25,-21.73,2,90
2022-05-24 14:20:51.002,9.03899744153023,-3.29,-1.19,2,-14.18
2022-05-24 14:20:51.117,9.15399380028248,0.87,22.95,2,-90
2022-05-24 14:20:51.231,9.26799438893795,5.29,28,2,-90
2022-05-24 14:20:51.346,9.38300080597401,7.28,28,2,-90
2022-05-24 14:20:51.461,9.49799716472626,5.62,14.2,7,-30.61
2022-05-24 14:20:51.575,9.61199775338173,1.61,-10.16,2,90
2022-05-24 14:20:51.690,9.72699411213398,-3.01,-22,2,90
2022-05-24 14:20:51.802,9.83900316059589,-5.79,-22,2,90
2022-05-24 14:20:51.915,9.95199792087078,-5.35,-15.09,2,59.14
2022-05-24 14:20:52.030,10.066994279623,-1.8,10.99,2,-70.07
2022-05-24 14:20:52.145,10.1820006966591,3.36,28,2,-90
2022-05-24 14:20:52.259,10.2960012853146,7.35,28,2,-90
2022-05-24 14:20:52.374,10.4109976440668,7.67,28,1,-90
2022-05-24 14:20:52.488,10.5249982327223,4.48,3.52,1,20.73
2022-05-24 14:20:52.603,10.6399945914745,-0.53,-22,2,90
2022-05-24 14:20:52.718,10.7550010085106,-5.07,-22,2,90
2022-05-24 14:20:52.833,10.8699973672628,-6.84,-22,2,90
2022-05-24 14:20:52.947,10.9839979559183,-4.74,-5.64,2,9.02
2022-05-24 14:20:53.061,11.0979985445738,0.15,23.64,2,-90
2022-05-24 14:20:53.177,11.2140007317066,5.61,28,2,-90
2022-05-24 14:20:53.291,11.3280013203621,8.38,28,2,-90
2022-05-24 14:20:53.406,11.4429976791143,6.95,19.79,2,-60.24
2022-05-24 14:20:53.517,11.5540008991957,2.54,-8.62,2,79.62
2022-05-24 14:20:53.631,11.6680014878511,-2.9,-22,2,90
2022-05-24 14:20:53.746,11.7829978466034,-6.63,-22,2,90
2022-05-24 14:20:53.861,11.8979942053556,-6.74,-22,2,90
2022-05-24 14:20:53.975,12.0119947940111,-3.11,6.75,2,-56.66
2022-05-24 14:20:54.090,12.1270012110472,2.57,28,2,-90
2022-05-24 14:20:54.204,12.2410017997026,7.32,28,2,-90
2022-05-24 14:20:54.319,12.3559981584549,8.31,28,2,-90
2022-05-24 14:20:54.434,12.4709945172071,5.3,7.09,3,7.1
2022-05-24 14:20:54.548,12.5849951058626,0.07,-20.87,2,90
2022-05-24 14:20:54.664,12.7009972929955,-5.06,-22,2,90
2022-05-24 14:20:54.778,12.8149978816509,-7.42,-22,2,90
2022-05-24 14:20:54.893,12.9299942404032,-5.74,-10.98,2,37.35
2022-05-24 14:20:55.007,13.0439948290586,-0.86,20.09,2,-90
2022-05-24 14:20:55.122,13.1590012460947,4.91,28,2,-90
2022-05-24 14:20:55.232,13.2689986377954,8.21,28,2,-90
2022-05-24 14:20:55.348,13.3850008249283,7.29,23.25,2,-78.59
2022-05-24 14:20:55.463,13.4999971836805,2.98,-6.63,2,73.62
2022-05-24 14:20:55.577,13.613997772336,-2.53,-22,2,90
2022-05-24 14:20:55.691,13.7279983609915,-6.59,-22,2,90
2022-05-24 14:20:55.806,13.8429947197437,-7.13,-22,2,90
2022-05-24 14:20:55.920,13.9569953083992,-3.76,3.3,2,-38.35
2022-05-24 14:20:56.036,14.072997495532,1.81,28,2,-90
2022-05-24 14:20:56.150,14.1869980841875,6.76,28,2,-90
2022-05-24 14:20:56.264,14.300998672843,8.19,28,2,-90
2022-05-24 14:20:56.379,14.4159950315952,5.52,9.39,2,-5.07
2022-05-24 14:20:56.494,14.5310014486313,0.45,-18.88,1,90
2022-05-24 14:20:56.609,14.6459978073835,-4.58,-22,2,90
2022-05-24 14:20:56.723,14.759998396039,-7.19,-22,2,90
2022-05-24 14:20:56.838,14.8749947547913,-5.84,-12.81,2,47.06
2022-05-24 14:20:56.948,14.9850022047758,-1.29,17.16,2,-90
2022-05-24 14:20:57.063,15.0999985635281,4.37,28,2,-90
2022-05-24 14:20:57.178,15.2149949222803,7.84,28,2,-90
2022-05-24 14:20:57.293,15.3300013393164,7.21,24.23,2,-83.8
2022-05-24 14:20:57.408,15.4449976980686,3.21,-4.53,2,63.77
2022-05-24 14:20:57.522,15.5589982867241,-2.11,-22,2,90
2022-05-24 14:20:57.637,15.6739946454763,-6.24,-22,3,90
2022-05-24 14:20:57.752,15.7890010625124,-6.98,-22,2,90
2022-05-24 14:20:57.866,15.9030016511679,-3.94,1.23,2,-28.67
2022-05-24 14:20:57.981,16.0179980099201,1.35,28,2,-90
2022-05-24 14:20:58.096,16.1329943686724,6.11,28,2,-90
2022-05-24 14:20:58.210,16.2469949573278,7.57,28,2,-90
2022-05-24 14:20:58.325,16.3620013743639,5.08,8.61,2,-0.93
2022-05-24 14:20:58.439,16.4760019630194,0.39,-17.42,2,90
2022-05-24 14:20:58.550,16.5869951248169,-4.32,-22,2,90
2022-05-24 14:20:58.664,16.7009957134724,-6.72,-22,2,90
2022-05-24 14:20:58.779,16.8160021305084,-5.43,-11.62,2,40.74
2022-05-24 14:20:58.894,16.9309984892607,-1.18,16.23,2,-90
2022-05-24 14:20:59.009,17.0459948480129,3.92,28,2,-90
2022-05-24 14:20:59.124,17.161001265049,6.88,28,2,-90
2022-05-24 14:20:59.238,17.2750018537045,6.02,19.1,2,-56.59
2022-05-24 14:20:59.352,17.3890024423599,2.26,-6.78,2,68.97
2022-05-24 14:20:59.468,17.504994571209,-2.5,-22,2,90
2022-05-24 14:20:59.582,17.6189951598644,-5.87,-22,2,90
2022-05-24 14:20:59.697,17.7340015769005,-6,-19.86,2,84.46
2022-05-24 14:20:59.812,17.8489979356527,-2.84,5.66,2,-48.1
2022-05-24 14:20:59.927,17.963994294405,2.02,28,2,-90
2022-05-24 14:21:00.041,18.0779948830605,5.83,28,2,-90
2022-05-24 14:21:00.156,18.1930013000965,6.34,26.14,2,-90
2022-05-24 14:21:00.270,18.307001888752,3.5,1.61,2,33.7
2022-05-24 14:21:00.381,18.4179950505495,-0.84,-20.19,2,90
2022-05-24 14:21:00.495,18.531995639205,-4.7,-22,2,90
2022-05-24 14:21:00.611,18.6479978263378,-5.98,-22,2,90
2022-05-24 14:21:00.724,18.7610026448965,-3.86,-2.5,2,-7.62
2022-05-24 14:21:00.840,18.8769947737455,0.49,22.5,1,-90
2022-05-24 14:21:00.954,18.990995362401,4.8,28,2,-90
2022-05-24 14:21:01.069,19.1060017794371,6.44,28,2,-90
2022-05-24 14:21:01.184,19.2209981381893,4.52,9.21,2,-4.12
2022-05-24 14:21:01.298,19.3349987268448,0.51,-14.01,2,90
2022-05-24 14:21:01.412,19.4489993155003,-3.76,-22,2,90
2022-05-24 14:21:01.528,19.5650015026331,-5.98,-22,1,90
2022-05-24 14:21:01.643,19.6799978613853,-4.89,-10.56,2,29.84
2022-05-24 14:21:01.757,19.7939984500408,-0.95,15.62,2,-86.35
2022-05-24 14:21:01.872,19.9089948087931,3.74,28,2,-90
2022-05-24 14:21:01.986,20.0229953974485,6.51,28,2,-90
2022-05-24 14:21:02.098,20.1349943876266,5.68,18.03,2,-50.88
2022-05-24 14:21:02.212,20.2489949762821,2.05,-6.97,2,68.59
2022-05-24 14:21:02.326,20.3629955649376,-2.42,-22,1,90
2022-05-24 14:21:02.442,20.4789977520704,-5.58,-22,2,90
2022-05-24 14:21:02.556,20.5929983407259,-5.73,-18.91,2,80.73
2022-05-24 14:21:02.671,20.7079946994781,-2.63,6.04,3,-48.86
2022-05-24 14:21:02.786,20.8230011165142,2.22,28,2,-90
2022-05-24 14:21:02.900,20.9370017051697,6.13,28,2,-90
2022-05-24 14:21:03.014,21.0510022938251,6.74,27.99,2,-90
2022-05-24 14:21:03.129,21.1659986525774,3.84,2.57,2,31.06
2022-05-24 14:21:03.244,21.2809950113297,-0.73,-20.84,2,90
2022-05-24 14:21:03.359,21.3960014283657,-4.9,-22,2,90
2022-05-24 14:21:03.473,21.5100020170212,-6.45,-22,2,90
2022-05-24 14:21:03.588,21.6249983757734,-4.45,-5.1,2,6.16
2022-05-24 14:21:03.702,21.7389989644289,0.05,21.62,2,-90
2022-05-24 14:21:03.813,21.8500021845102,4.8,28,2,-90
2022-05-24 14:21:03.928,21.9649985432625,7.01,28,2,-90
2022-05-24 14:21:04.042,22.078999131918,5.44,13.93,2,-29.16
2022-05-24 14:21:04.156,22.1929997205734,1.35,-11.38,2,85.51
2022-05-24 14:21:04.272,22.3090019077063,-3.39,-22,1,90
2022-05-24 14:21:04.387,22.4239982664585,-6.29,-22,2,90
2022-05-24 14:21:04.501,22.537998855114,-5.85,-16.81,2,69.61
2022-05-24 14:21:04.616,22.6529952138662,-2.15,10.43,2,-69.34
2022-05-24 14:21:04.730,22.7669958025217,2.92,28,2,-90
2022-05-24 14:21:04.845,22.8820022195578,6.56,28,2,-90
2022-05-24 14:21:04.960,22.99699857831,6.68,25.65,2,-90
2022-05-24 14:21:05.075,23.1119949370623,3.41,-0.56,2,44.59
2022-05-24 14:21:05.190,23.2270013540983,-1.23,-22,2,90
2022-05-24 14:21:05.303,23.3399961143732,-5.24,-22,2,90
2022-05-24 14:21:05.418,23.4550025314093,-6.46,-22,2,90
2022-05-24 14:21:05.529,23.5659956932068,-4.12,-2.46,2,-7.83
2022-05-24 14:21:05.643,23.6799962818623,0.52,23.85,2,-90
2022-05-24 14:21:05.758,23.7950026988983,5.14,28,2,-90
2022-05-24 14:21:05.873,23.9099990576506,6.94,28,2,-90
2022-05-24 14:21:05.988,24.0249954164028,5.03,11.02,2,-13.73
2022-05-24 14:21:06.103,24.1400018334389,0.8,-13.96,2,90
2022-05-24 14:21:06.218,24.2549981921911,-3.65,-22,2,90
2022-05-24 14:21:06.332,24.3689987808466,-6.12,-22,2,90
2022-05-24 14:21:06.447,24.4839951395988,-5.18,-12.24,2,44.06
2022-05-24 14:21:06.562,24.5990015566349,-1.23,14.67,2,-84.57
2022-05-24 14:21:06.676,24.7130021452904,3.57,28,2,-90
2022-05-24 14:21:06.791,24.8279985040426,6.57,28,2,-90
2022-05-24 14:21:06.905,24.9419990926981,5.97,19.98,2,-61.27
2022-05-24 14:21:07.020,25.0569954514503,2.46,-5,2,60.69
2022-05-24 14:21:07.135,25.1720018684864,-2.11,-22,2,90
2022-05-24 14:21:07.245,25.2819992601871,-5.47,-22,2,90
2022-05-24 14:21:07.360,25.3969956189394,-5.68,-19.04,1,80.12
2022-05-24 14:21:07.474,25.5109962075949,-2.54,6.6,2,-57.31
2022-05-24 14:21:07.590,25.6269983947277,2.29,28,2,-90
2022-05-24 14:21:07.704,25.7409989833832,6.08,28,2,-90
2022-05-24 14:21:07.818,25.8549995720387,6.51,26.44,2,-90
2022-05-24 14:21:07.933,25.9699959307909,3.44,0.39,2,40.59
2022-05-24 14:21:08.047,26.0839965194464,-1.17,-22,2,90
2022-05-24 14:21:08.163,26.1999987065792,-5.19,-22,2,90
2022-05-24 14:21:08.278,26.3149950653315,-6.36,-22,2,90
2022-05-24 14:21:08.392,26.4289956539869,-3.83,-0.56,2,-17.9
2022-05-24 14:21:08.506,26.5429962426424,1.06,26.8,2,-90
2022-05-24 14:21:08.621,26.6580026596785,5.92,28,2,-90
2022-05-24 14:21:08.736,26.7729990184307,7.68,28,2,-90
2022-05-24 14:21:08.851,26.887995377183,5.35,10.3,2,-9.89
2022-05-24 14:21:08.962,26.9989985972643,0.44,-18.19,2,90
2022-05-24 14:21:09.075,27.112003415823,-4.76,-22,2,90
2022-05-24 14:21:09.190,27.2269997745752,-7.35,-22,2,90
2022-05-24 14:21:09.305,27.3419961333275,-6.08,-13.97,2,53.2
2022-05-24 14:21:09.420,27.4570025503635,-1.29,18.19,2,-90
2022-05-24 14:21:09.535,27.5719989091158,4.84,28,2,-90
2022-05-24 14:21:09.649,27.6859994977713,8.89,28,2,-90
2022-05-24 14:21:09.764,27.8009958565235,8.54,28,2,-90
2022-05-24 14:21:09.878,27.914996445179,4.09,-3.37,2,62.6
2022-05-24 14:21:09.993,28.030002862215,-2.16,-22,1,90
2022-05-24 14:21:10.109,28.1459949910641,-7.45,-22,2,90
2022-05-24 14:21:10.223,28.2599955797195,-8.95,-22,2,90
2022-05-24 14:21:10.337,28.373996168375,-5.88,-5.46,2,8.1
2022-05-24 14:21:10.451,28.4879967570305,0.34,28,2,-90
2022-05-24 14:21:10.566,28.6030031740665,6.91,28,2,-90
2022-05-24 14:21:10.678,28.7150021642447,10.17,28,2,-90
2022-05-24 14:21:10.792,28.8290027529001,8.34,22.96,2,-77.05
2022-05-24 14:21:10.907,28.9439991116524,2.83,-12.47,2,90
2022-05-24 14:21:11.022,29.0589954704046,-4.02,-22,2,90
2022-05-24 14:21:11.136,29.1729960590601,-8.88,-22,2,90
2022-05-24 14:21:11.251,29.2880024760962,-9.47,-22,2,90
2022-05-24 14:21:11.366,29.4029988348484,-5.49,-0.03,2,-20.71
2022-05-24 14:21:11.480,29.5169994235039,1.28,28,2,-90
2022-05-24 14:21:11.595,29.6319957822561,7.65,28,2,-90
2022-05-24 14:21:11.709,29.7459963709116,10.08,28,2,-90
2022-05-24 14:21:11.824,29.8610027879477,7.55,17.11,2,-46.03
2022-05-24 14:21:11.939,29.9759991466999,1.7,-17.85,2,90
2022-05-24 14:21:12.053,30.0899997353554,-4.87,-22,2,90
2022-05-24 14:21:12.168,30.2049960941076,-9.16,-22,2,90
2022-05-24 14:21:12.284,30.3209982812405,-9.15,-22,2,90
2022-05-24 14:21:12.398,30.4349988698959,-4.81,3.85,2,-41.3
